星链-34040 (STARLINK-34040)

导读

STARLINK-34040是美国SpaceX公司星链星座的成员,于2025年5月7日发射,属于星链大规模低轨通信卫星组网计划中的量产卫星。该卫星运行于近地轨道,搭载Ku/Ka波段通信载荷与光学星间链路,采用氪工质霍尔推进器,具备自主避撞能力,旨在为全球提供低时延、高覆盖的宽带互联网接入服务,设计服役寿命约5-7年。

基本信息
目录编号:
63839
目录名称:
STARLINK-34040
国际标识:
2025-093D
轨道中心:
EARTH
卫星名称:
星链-34040
卫星全名:
星链-34040 (STARLINK-34040)
卫星状态:
在轨 (已飞行485 天)
发射日期:
2025-05-07 UTC
国别 :
美国 (US)
星等 :
--
轨道信息
数据来源 国际轨道数据
星历时间: 2026-09-04T11:11:34+0800
6小时前
查看轨道信息
半长轴: 6861.161km
偏心率: 0.0001358
轨道倾角: 43.001°
近地点辐角 270.522°
升交点赤经 150.077°
平近点角 89.548°
近地点: 482.092km
远地点: 483.956km
周期: 94.266分钟
每日圈数: 15.275885
详细信息
固有亮度:
5
最大亮度:
2.5
卫星平台:
Starlink V1.0
覆盖范围:
全球
运营商:
太空探索技术公司
运营商所在国:
美国
制造商(研发单位):
太空探索技术公司
制造商所在国:
美国
使用方式:
暂无
卫星简介
Starlink 计划是 SpaceX 推出的全球卫星互联网项目,通过发射低轨道卫星,为全球尤其是偏远地区提供高速、低延迟的互联网服务。自 2019 年起,Starlink 已部署数千颗卫星,旨在缩小全球数字鸿沟,推动互联网普及。该项目还为军事、航空等行业提供通信支持,带来广泛经济效益。
2D轨道图
3D轨道图
轨道高度分析图
轨道倾角分析图
轨道综合分析图
查看轨道综合分析图
交会数据列表
事件ID 空间交会对象 最接近时刻(TCA) 交会距离 交会风险概率(CRP) 交会风险指数(CRI) 操作
CDM_260903-225105-849506-383921
2026-09-03T
22:51:11+0000
0.253 km
中距离
2.473506E-4 高风险 0.83
CDM_260905-150406-383906-390621
2026-09-05T
15:04:05+0000
0.623 km
远距离
7.898257E-5 中风险 0.73
CDM_260905-111305-978706-383921
2026-09-05T
11:13:03+0000
0.849 km
远距离
3.44844E-5 中风险 0.66
CDM_260905-163806-383906-390621
2026-09-05T
16:38:14+0000
0.817 km
远距离
3.427338E-5 中风险 0.66
CDM_260905-131105-753006-383921
2026-09-05T
13:11:18+0000
0.825 km
远距离
2.901922E-5 中风险 0.64
CDM_260905-032205-651806-383921
2026-09-05T
03:22:56+0000
1.433 km
极远距离
5.8129E-6 低风险 0.5
CDM_260905-045705-651806-383921
2026-09-05T
04:57:05+0000
1.740 km
极远距离
3.171387E-6 低风险 0.45
CDM_260903-220405-849506-383922
2026-09-03T
22:04:06+0000
1.199 km
极远距离
2.970683E-6 低风险 0.44
CDM_260905-132906-383906-390621
2026-09-05T
13:29:56+0000
1.998 km
极远距离
1.929993E-6 低风险 0.41
CDM_260905-181206-383906-390621
2026-09-05T
18:12:23+0000
2.233 km
极远距离
1.499002E-6 低风险 0.39